Date,TemperatureHighF,TemperatureAvgF,TemperatureLowF,DewpointHighF,DewpointAvgF,DewpointLowF,HumidityHigh,HumidityAvg,HumidityLow,PressureMaxIn,PressureMinIn,WindSpeedMaxMPH,WindSpeedAvgMPH,GustSpeedMaxMPH,PrecipitationSumIn
2013-1-1,33.9,23.2,7.6,29.0,16.9,5.0,89,77,60,30.07,29.89,12,2,0,0.00
2013-1-2,27.0,22.0,10.1,21.0,16.9,8.0,90,81,71,30.23,30.04,8,2,0,0.00
2013-1-3,30.5,24.7,19.8,27.0,21.1,15.0,91,86,78,30.22,30.01,11,2,0,0.00
2013-1-4,33.6,31.5,28.6,27.0,25.4,22.0,83,78,69,30.08,29.93,17,5,0,0.01
2013-1-5,35.2,32.2,28.2,29.0,26.6,24.0,87,80,72,30.32,30.07,13,2,0,0.00
2013-1-6,35.8,34.4,32.1,33.0,31.4,26.0,95,89,72,30.11,29.91,5,1,0,0.00
2013-1-7,34.6,29.6,25.5,33.0,25.0,22.0,94,83,73,30.41,30.12,8,1,0,0.00
2013-1-8,38.3,32.1,26.6,30.0,25.3,22.0,91,77,67,30.34,30.19,7,1,0,0.02
2013-1-9,46.8,37.3,26.5,37.0,31.0,23.0,90,79,62,30.39,30.01,20,4,0,0.08
2013-1-10,42.0,35.8,30.6,31.0,28.8,27.0,91,76,59,30.61,30.39,6,1,0,0.00
2013-1-11,48.3,43.4,33.0,46.0,36.4,25.0,93,77,48,30.38,29.86,11,1,0,0.11
2013-1-12,60.8,51.1,43.2,52.0,47.4,42.0,96,87,71,30.01,29.95,11,1,0,0.00
2013-1-13,67.6,55.5,49.1,58.0,52.0,47.0,96,88,71,29.95,29.74,9,1,0,0.04
2013-1-14,50.3,34.0,28.3,49.0,28.5,21.0,96,80,69,30.40,29.73,13,3,0,0.05
2013-1-15,31.2,28.6,27.3,24.0,22.0,21.0,83,77,69,30.43,30.18,7,0,0,0.00
2013-1-16,38.2,32.7,28.6,31.0,26.8,23.0,87,79,63,30.17,29.82,12,1,0,0.00
2013-1-17,35.6,26.7,17.9,31.0,21.6,15.0,90,81,75,30.18,29.89,11,2,0,0.00
2013-1-18,34.8,21.8,13.7,20.0,13.7,9.0,91,72,54,30.48,30.06,7,2,0,0.01
2013-1-19,48.5,42.3,35.1,31.0,26.0,19.0,71,53,43,30.05,29.60,19,3,0,0.03
2013-1-20,48.9,30.9,19.3,36.0,19.1,8.0,77,62,46,30.10,29.49,15,6,0,0.01
2013-1-21,20.3,18.1,12.2,16.0,10.7,1.0,89,73,59,30.09,29.90,7,1,0,0.00
2013-1-22,12.0,9.0,6.0,2.0,-2.0,-5.0,67,61,55,30.24,29.94,11,4,0,0.00
2013-1-23,15.3,8.5,-0.1,10.0,3.1,-4.0,88,79,53,30.28,30.15,8,0,0,0.00
2013-1-24,15.3,7.9,-2.8,11.0,3.3,-7.0,88,82,65,30.58,30.14,6,1,0,0.00
2013-1-25,18.2,8.5,-3.5,11.0,3.6,-7.0,88,81,59,30.56,30.12,3,0,0,0.00
2013-1-26,24.9,14.7,3.0,14.0,9.4,0.0,89,80,61,30.45,30.14,3,0,0,0.01
2013-1-27,30.8,20.7,10.6,20.0,15.3,8.0,92,80,58,30.60,30.37,3,0,0,0.07
2013-1-28,45.8,36.1,23.6,45.0,34.3,19.0,97,93,81,30.35,29.87,9,2,0,0.47
2013-1-29,55.4,44.3,35.2,54.0,43.5,35.0,98,97,94,30.05,29.73,6,0,0,0.45
2013-1-30,66.7,59.2,51.3,56.0,52.9,48.0,97,80,64,29.71,29.03,15,2,0,0.26
2013-1-31,54.2,29.3,22.1,52.0,22.4,13.0,93,76,60,29.74,29.03,20,7,0,0.17
2013-2-1,23.4,20.5,17.8,16.0,13.1,9.0,88,73,62,30.22,29.74,13,4,0,0.00
2013-2-2,21.2,17.0,13.1,15.0,12.7,9.0,90,83,74,30.23,30.00,8,1,0,0.00
2013-2-3,25.4,17.0,7.3,17.0,12.1,4.0,93,82,56,30.00,29.82,8,1,0,0.00
2013-2-4,20.8,18.6,15.4,17.0,12.7,8.0,90,78,60,30.01,29.91,9,2,0,0.00
2013-2-5,28.2,21.8,13.2,23.0,16.5,11.0,91,81,63,29.97,29.86,3,0,0,0.03
2013-2-6,27.9,24.8,15.1,25.0,18.2,12.0,90,76,57,30.39,29.91,7,2,0,0.02
2013-2-7,36.5,26.4,14.0,25.0,18.5,11.0,90,74,52,30.40,30.07,4,0,0,0.02
2013-2-8,37.5,29.8,18.1,35.0,26.2,16.0,95,86,71,30.14,29.76,3,1,0,0.34
2013-2-9,20.8,17.3,10.0,18.0,14.9,7.0,91,89,86,30.45,30.15,2,0,0,0.00
2013-2-10,43.2,25.8,4.8,35.0,19.9,2.0,94,80,53,30.44,29.96,7,1,0,0.34
2013-2-11,53.2,39.6,32.9,43.0,32.9,25.0,93,78,54,29.95,29.57,22,4,0,0.11
2013-2-12,33.4,32.3,31.1,31.0,28.1,26.0,93,84,77,29.99,29.76,14,4,0,0.03
2013-2-13,37.6,31.5,23.8,27.0,25.4,22.0,92,79,63,29.93,29.74,4,0,0,0.01
2013-2-14,41.8,34.2,23.6,36.0,29.4,22.0,94,83,62,29.92,29.79,4,1,0,0.09
2013-2-15,38.0,32.2,23.0,35.0,25.1,16.0,87,75,66,30.09,29.79,10,3,0,0.00
2013-2-16,29.3,23.8,16.0,21.0,16.5,12.0,88,74,50,30.09,29.93,7,0,0,0.00
2013-2-17,20.8,16.4,13.2,19.0,10.7,6.0,91,78,64,30.26,29.93,11,3,0,0.00
2013-2-18,36.9,22.9,6.2,24.0,12.6,3.0,89,67,43,30.32,29.90,5,1,0,0.02
2013-2-19,41.9,34.0,23.5,38.0,28.1,20.0,93,80,56,29.90,29.57,12,3,0,0.34
2013-2-20,24.0,21.4,19.3,21.0,14.6,11.0,89,75,62,30.13,29.79,14,5,0,0.00
2013-2-21,21.1,19.5,16.7,16.0,14.1,11.0,84,79,73,30.44,30.11,11,3,0,0.00
2013-2-22,35.8,29.2,20.1,30.0,23.9,17.0,88,81,65,30.41,30.00,7,1,0,0.02
2013-2-23,39.2,33.5,30.6,33.0,28.9,25.0,86,83,76,30.01,29.89,8,1,0,0.00
2013-2-24,31.1,30.3,28.8,27.0,25.7,25.0,90,83,79,30.11,29.87,8,2,0,0.01
2013-2-25,35.3,30.7,24.1,29.0,26.1,22.0,92,83,72,30.25,30.11,6,0,0,0.00
2013-2-26,43.8,33.5,22.9,34.0,27.3,21.0,94,80,54,30.23,29.71,5,1,0,0.69
2013-2-27,37.3,35.6,33.4,36.0,33.9,32.0,96,93,85,29.71,29.58,6,0,0,0.36
2013-2-28,34.2,33.4,32.4,33.0,32.3,31.0,96,95,93,29.77,29.55,5,1,0,0.18
2013-3-1,32.3,28.6,25.9,31.0,25.5,22.0,96,88,82,29.98,29.77,6,1,0,0.00
2013-3-2,25.7,23.9,21.5,22.0,20.3,18.0,89,86,81,29.99,29.92,6,1,0,0.00
2013-3-3,24.7,22.9,21.2,22.0,19.8,18.0,92,87,79,29.96,29.89,6,2,4,0.00
2013-3-4,29.6,24.9,18.0,25.0,20.4,15.0,89,83,72,30.10,29.96,8,2,0,0.00
2013-3-5,36.1,27.1,15.0,25.0,21.0,13.0,93,78,62,30.13,29.95,5,1,0,0.10
2013-3-6,43.2,32.7,23.6,32.0,27.5,21.0,90,82,61,30.16,29.95,5,1,0,0.01
2013-3-7,39.3,34.1,30.2,33.0,30.6,27.0,94,87,69,30.29,30.15,5,0,0,0.00
2013-3-8,43.0,34.5,27.6,31.0,27.5,23.0,95,77,51,30.43,30.29,5,1,0,0.03
2013-3-9,50.0,36.0,24.4,33.0,27.9,23.0,94,75,44,30.44,30.19,4,0,0,0.00
2013-3-10,68.1,54.0,38.0,36.0,29.7,26.0,72,41,27,30.19,29.94,10,2,0,0.00
2013-3-11,60.8,54.3,46.3,44.0,33.1,30.0,92,46,35,29.93,29.62,8,2,0,0.08
2013-3-12,46.0,37.3,33.6,44.0,33.5,29.0,94,86,81,29.93,29.69,12,3,0,0.11
2013-3-13,34.5,31.3,23.3,30.0,25.8,20.0,93,80,65,30.01,29.86,13,3,0,0.05
2013-3-14,34.0,27.1,22.6,18.0,14.6,9.0,78,61,38,30.12,30.01,19,4,0,0.00
2013-3-15,34.8,31.2,25.3,32.0,26.9,18.0,92,84,66,30.08,29.80,10,2,0,0.02
2013-3-16,30.1,27.0,17.9,23.0,20.4,16.0,91,76,70,30.02,29.84,5,1,0,0.01
2013-3-17,31.7,24.3,17.0,22.0,16.8,11.0,93,74,52,30.36,30.02,6,1,0,0.01
2013-3-18,36.3,27.9,17.2,32.0,20.9,11.0,90,76,47,30.35,29.68,11,1,0,0.01
2013-3-19,37.0,31.3,25.6,34.0,27.2,19.0,94,85,74,29.86,29.66,15,4,0,0.12
2013-3-20,33.1,27.2,19.6,26.0,21.1,17.0,91,78,56,29.87,29.83,10,3,0,0.07
2013-3-21,28.7,23.8,13.6,27.0,19.0,11.0,92,82,57,29.86,29.76,10,2,0,0.00
2013-3-22,30.5,28.2,25.4,28.0,25.0,21.0,92,87,79,29.98,29.79,11,3,0,0.00
2013-3-23,38.1,32.6,28.6,29.0,26.6,24.0,88,79,63,30.04,29.95,8,2,0,0.08
2013-3-24,40.2,31.5,19.6,28.0,23.0,18.0,94,72,50,30.05,29.72,4,1,0,0.01
2013-3-25,41.0,35.0,31.1,31.0,26.9,25.0,86,73,60,29.76,29.61,6,1,0,0.00
2013-3-26,46.0,37.2,29.9,34.0,30.8,27.0,90,78,59,29.98,29.76,7,1,0,0.00
2013-3-27,40.0,34.0,31.3,33.0,30.8,27.0,96,88,75,30.09,29.96,6,1,0,0.09
2013-3-28,39.7,35.5,32.8,36.0,33.2,32.0,96,91,82,30.24,30.08,8,1,0,0.32
2013-3-29,48.5,39.2,32.3,35.0,32.0,28.0,92,77,52,30.23,30.16,7,1,0,0.00
2013-3-30,45.4,31.6,26.9,34.0,27.8,25.0,94,86,61,30.23,30.20,2,0,0,0.00
2013-5-9,64.6,47.3,53.3,59.4,16.3,-99.9,96,65,75,29.96,29.92,3,-181,10,0.91
2013-5-10,74.8,59.4,51.4,63.0,56.7,50.0,97,91,62,29.95,29.71,6,0,11,0.44
2013-5-11,59.2,49.4,45.1,58.0,47.7,44.0,97,93,85,29.79,29.66,10,2,16,0.11
2013-5-12,50.2,42.9,38.7,47.0,36.9,31.0,96,79,65,29.96,29.70,13,3,32,0.04
2013-5-13,46.2,40.3,34.6,36.5,32.8,30.0,92,75,60,30.16,29.96,11,3,18,0.00
2013-5-14,57.4,46.6,33.5,44.0,34.5,28.0,95,67,35,30.17,29.92,8,1,18,0.00
2013-5-15,78.3,60.9,50.3,60.0,49.4,42.0,84,67,50,29.92,29.55,15,2,29,0.00
2013-5-16,71.7,61.1,47.7,52.0,47.6,36.0,94,65,31,30.01,29.73,12,2,18,0.00
2013-5-17,65.8,53.2,38.8,47.0,42.6,37.0,97,70,44,30.21,30.01,2,0,7,0.00
2013-5-18,74.4,60.3,45.3,52.0,47.5,43.0,91,65,43,30.23,30.10,5,0,8,0.00
2013-5-19,82.5,67.8,55.8,65.0,58.8,50.0,94,74,49,30.11,29.95,4,0,8,0.00
2013-5-20,85.9,72.8,59.8,68.0,63.6,58.0,94,75,50,30.01,29.83,6,0,20,0.00
2013-5-21,86.5,72.5,62.3,71.0,64.9,60.0,96,78,55,29.92,29.72,7,1,15,0.10
2013-5-22,85.2,72.6,62.9,69.0,64.8,61.0,98,79,49,29.77,29.61,5,1,13,0.07
2013-5-23,71.7,62.7,45.2,65.0,59.0,44.0,96,88,74,29.90,29.67,14,2,17,0.50
2013-5-24,50.1,43.0,38.8,43.0,38.3,37.0,95,84,62,30.24,29.90,10,2,13,0.13
2013-5-25,57.5,48.0,35.8,42.0,37.3,34.0,96,69,45,30.27,30.19,10,1,18,0.00
2013-5-26,61.6,50.0,36.5,44.0,38.1,32.0,96,67,34,30.24,30.18,9,2,15,0.00
2013-5-27,70.1,54.8,38.2,46.0,39.8,33.0,94,63,26,30.29,30.12,4,0,7,0.00
2013-5-28,63.5,57.1,48.8,63.0,54.8,44.0,97,92,77,30.15,29.90,3,0,9,0.86
2013-5-29,77.3,70.2,63.2,66.0,63.6,62.0,97,81,63,30.00,29.87,15,2,18,0.36
2013-5-30,83.6,73.0,62.2,69.0,64.9,61.0,97,77,56,30.10,30.00,8,1,13,0.00
2013-5-31,86.5,75.3,63.8,71.0,65.3,62.0,94,73,51,30.05,29.90,7,1,13,0.00
2013-6-1,85.1,73.4,66.7,70.0,66.3,63.0,96,80,58,29.94,29.73,7,1,19,0.40
2013-6-2,70.8,67.0,58.1,67.0,62.0,52.0,97,84,68,29.88,29.67,14,2,24,0.90
2013-6-3,59.4,54.0,47.8,52.0,46.4,43.0,93,76,64,30.04,29.89,8,2,14,0.00
2013-6-4,67.3,55.4,42.8,49.0,43.7,37.0,96,69,34,30.17,30.05,7,1,10,0.00
2013-6-5,70.9,57.8,45.9,54.0,47.2,41.0,95,71,44,30.21,30.05,5,0,7,0.00
2013-6-6,58.7,56.8,52.6,58.0,53.1,42.0,97,88,59,30.04,29.81,3,0,8,1.46
2013-6-7,60.2,57.9,56.3,58.0,56.7,56.0,97,95,90,29.85,29.80,3,0,6,0.05
2013-6-8,64.5,58.6,53.6,59.0,56.4,52.0,98,92,78,30.09,29.82,6,1,9,0.07
2013-6-9,77.3,63.3,49.3,60.0,55.0,49.0,98,77,48,30.20,30.08,4,0,7,0.00
2013-6-10,73.0,66.1,59.2,67.0,63.3,57.0,95,90,77,30.08,29.69,4,0,7,0.28
2013-6-11,67.5,63.7,59.8,64.0,61.5,59.0,97,93,85,29.84,29.64,7,1,12,0.24
2013-6-12,77.7,66.2,55.1,63.0,58.5,54.0,98,79,49,29.91,29.74,3,0,7,0.00
2013-6-13,63.9,60.9,55.2,63.0,59.4,54.0,97,94,87,29.78,29.46,6,0,8,0.89
2013-6-14,70.8,61.1,52.4,61.0,57.2,52.0,98,87,68,29.99,29.78,6,1,12,0.00
2013-6-15,69.5,61.5,51.0,57.0,53.4,45.0,98,77,43,30.06,29.95,7,1,15,0.00
2013-6-16,72.1,64.4,58.4,66.0,60.8,55.0,96,88,79,29.94,29.70,11,1,16,0.15
2013-6-17,77.2,67.5,57.8,63.0,59.1,56.0,98,76,53,29.91,29.80,10,1,15,0.01
2013-6-18,69.4,61.9,51.1,59.0,54.5,49.0,96,78,51,30.02,29.86,3,0,8,0.00
2013-6-19,69.7,58.1,45.6,52.0,47.6,44.0,97,72,44,30.19,30.02,2,0,7,0.00
2013-6-20,77.7,61.9,45.5,54.0,49.0,44.0,96,68,30,30.24,30.18,7,0,9,0.00
2013-6-21,82.7,67.0,50.5,59.0,54.6,48.0,94,68,37,30.26,30.15,5,0,7,0.00
2013-6-22,86.0,73.6,61.0,71.0,64.5,57.0,91,75,53,30.15,29.99,6,1,16,0.00
2013-6-23,83.1,76.4,67.2,72.0,67.9,64.0,95,76,53,30.04,29.97,8,1,13,0.01
2013-6-24,82.5,76.1,69.2,71.0,66.7,64.0,89,73,54,30.03,29.92,11,2,16,0.00
2013-6-25,79.0,72.6,67.7,70.0,66.8,64.0,92,82,69,29.93,29.79,14,1,19,0.05
2013-6-26,78.5,72.7,68.9,70.0,66.7,64.0,93,82,65,29.82,29.76,13,1,14,0.03
2013-6-27,79.2,70.5,64.7,73.0,67.6,63.0,96,91,79,29.78,29.62,2,0,6,0.15
2013-6-28,71.4,65.9,62.7,67.0,64.7,62.0,98,96,85,29.61,29.47,4,0,6,1.35
2013-6-29,74.5,66.7,62.0,67.0,63.3,61.0,98,90,71,29.68,29.46,5,0,9,0.10
2013-6-30,77.7,67.3,57.1,68.0,62.7,56.0,98,86,69,29.90,29.68,4,0,5,0.00
2013-7-1,69.3,64.5,60.8,64.0,62.4,60.0,96,92,81,30.04,29.89,3,0,5,0.16
2013-7-2,79.6,67.3,59.4,72.0,64.3,58.0,97,90,75,30.07,29.99,3,0,5,0.09
2013-7-3,86.6,74.5,64.8,76.0,69.8,64.0,98,86,65,30.12,30.05,6,0,7,0.01
2013-7-4,83.6,73.3,68.8,74.0,70.2,68.0,97,90,66,30.16,30.08,5,0,9,0.66
2013-7-5,82.1,72.4,67.9,74.0,69.6,67.0,98,91,70,30.11,30.05,8,0,11,0.03
2013-7-6,83.2,72.5,65.2,73.0,68.7,64.0,98,88,69,30.13,30.00,4,0,7,0.01
2013-7-7,77.6,73.3,70.2,71.0,69.1,66.0,98,87,75,30.03,29.93,10,1,14,0.06
2013-7-8,79.2,73.1,69.7,71.0,68.7,67.0,96,86,67,30.04,29.96,5,1,11,0.28
2013-7-9,79.7,72.7,68.5,74.0,70.2,68.0,98,92,80,30.02,29.87,5,0,9,0.05
2013-7-10,81.7,75.0,68.9,76.0,70.6,64.0,98,86,74,29.87,29.71,9,1,17,0.01
2013-7-11,75.5,66.6,58.3,67.0,60.6,57.0,97,82,61,30.00,29.82,6,0,8,0.05
2013-7-12,75.3,65.1,57.1,67.0,61.8,56.0,98,89,73,30.16,30.00,2,0,5,0.00
2013-7-13,82.3,70.2,57.7,72.0,65.6,57.0,98,86,67,30.23,30.15,2,0,6,0.00
2013-7-14,89.5,75.6,65.3,77.0,70.1,65.0,98,84,59,30.28,30.21,0,0,6,0.00
2013-7-15,88.3,78.3,70.1,76.0,72.0,67.0,97,82,60,30.28,30.20,4,0,10,0.00
2013-7-16,87.9,77.9,68.1,77.0,71.4,67.0,97,82,55,30.27,30.18,6,0,8,0.00
2013-7-17,88.4,79.5,70.7,79.0,74.0,70.0,96,84,58,30.22,30.07,6,1,14,0.05
2013-7-18,88.3,80.2,72.6,79.0,74.5,72.0,98,84,67,30.09,29.93,8,1,13,0.00
2013-7-19,88.2,80.9,68.3,76.0,72.3,67.0,96,76,56,29.93,29.70,14,2,23,1.82
2013-7-20,78.6,71.4,64.5,72.0,68.6,63.0,97,91,78,29.88,29.69,9,0,14,0.44
2013-7-21,79.7,70.3,62.0,67.0,64.0,60.0,97,82,59,29.98,29.88,5,0,5,0.00
2013-7-22,81.1,68.6,58.2,73.0,64.6,57.0,98,88,69,29.98,29.75,1,0,6,0.05
2013-7-23,80.3,71.0,63.9,71.0,67.2,60.0,98,88,68,29.75,29.61,7,1,13,0.05
2013-7-24,67.3,61.7,53.2,59.0,53.8,51.0,94,76,60,30.02,29.72,6,1,11,0.00
2013-7-25,73.8,61.6,49.3,58.0,53.4,48.0,96,77,52,30.12,30.03,2,0,10,0.00
2013-7-26,79.4,63.9,49.0,63.0,56.0,48.0,97,78,48,30.12,29.98,1,0,6,0.00
2013-7-27,76.3,66.7,57.4,69.0,62.9,56.0,96,88,69,29.98,29.79,1,0,4,0.13
2013-7-28,67.1,64.6,63.1,64.0,62.0,59.0,97,92,78,29.88,29.78,5,0,10,0.01
2013-9-6,68.5,62.2,53.7,52.2,49.3,45.1,89,65,47,30.30,30.13,2,1,3,0.00
2013-9-7,62.1,59.0,56.3,58.2,56.1,52.8,96,90,77,30.04,29.92,0,0,3,0.21
2013-9-8,66.6,63.0,55.9,55.3,51.1,48.3,82,66,56,30.08,30.03,1,0,4,0.03
2013-9-9,67.3,62.2,45.8,64.1,60.1,45.0,97,93,89,30.12,29.97,0,0,3,0.00
2013-9-10,82.4,77.0,70.8,72.0,70.4,69.2,95,81,71,29.98,29.91,0,0,3,0.10
2013-9-11,86.7,78.6,74.0,73.0,71.1,69.4,91,79,63,30.00,29.90,3,1,7,0.00
2013-9-12,71.8,63.9,58.5,67.7,62.3,57.1,97,94,83,29.84,29.71,2,0,3,0.19
2013-9-13,59.6,56.0,50.7,56.7,53.2,47.9,91,90,90,29.98,29.77,1,0,3,0.00
2013-9-14,57.5,54.4,48.3,46.7,44.2,43.1,94,69,61,30.13,30.04,2,1,6,0.00
2013-9-15,65.8,56.4,46.1,54.8,49.1,42.4,89,78,66,30.16,30.08,1,0,1,0.00